This is the latest recevied weather packets stored in our database for station/object DK8RG-15. If no packets are shown the sender has not sent any weather packets the latest 10 day(s).
| Time | Temp. | Humidity | Pressure | Rain* | Wind** | Luminosity | Snow |
|---|---|---|---|---|---|---|---|
| 1777428023 | 0° C | 78% | 1020.3 hPa | 0 mm | - | - | - |
| 1777427421 | 0° C | 77% | 1020.2 hPa | 0 mm | - | - | - |
| 1777426823 | 0° C | 77% | 1020.3 hPa | 0 mm | - | - | - |
| 1777426221 | 0° C | 77% | 1020.3 hPa | 0 mm | - | - | - |
| 1777425622 | 0° C | 77% | 1020.3 hPa | 0 mm | - | - | - |
| 1777425021 | 0° C | 76% | 1020.3 hPa | 0 mm | - | - | - |
| 1777424423 | 0° C | 76% | 1020.3 hPa | 0 mm | - | - | - |
| 1777423822 | 0° C | 76% | 1020.3 hPa | 0 mm | - | - | - |
| 1777423221 | 0° C | 75% | 1020.3 hPa | 0 mm | - | - | - |
| 1777422621 | 0° C | 75% | 1020.3 hPa | 0 mm | - | - | - |
| 1777422021 | 0° C | 74% | 1020.3 hPa | 0 mm | - | - | - |
| 1777421422 | 0.56° C | 74% | 1020.4 hPa | 0 mm | - | - | - |
| 1777420822 | 1.11° C | 73% | 1020.4 hPa | 0 mm | - | - | - |
| 1777420222 | 1.11° C | 73% | 1020.3 hPa | 0 mm | - | - | - |
| 1777419622 | 1.11° C | 73% | 1020.4 hPa | 0 mm | - | - | - |
| 1777419021 | 1.11° C | 73% | 1020.4 hPa | 0 mm | - | - | - |
| 1777418423 | 1.11° C | 72% | 1020.4 hPa | 0 mm | - | - | - |
| 1777417821 | 1.67° C | 71% | 1020.4 hPa | 0 mm | - | - | - |
| 1777417223 | 2.22° C | 70% | 1020.5 hPa | 0 mm | - | - | - |
| 1777416622 | 2.22° C | 70% | 1020.5 hPa | 0 mm | - | - | - |
| 1777416023 | 2.78° C | 68% | 1020.5 hPa | 0 mm | - | - | - |
| 1777415423 | 2.78° C | 67% | 1019.5 hPa | 0 mm | - | - | - |
| 1777413632 | 3.89° C | 64% | 1019.6 hPa | 0 mm | - | - | - |
| 1777413017 | 3.89° C | 63% | 1019.5 hPa | 0 mm | - | - | - |
| 1777412417 | 3.89° C | 62% | 1019.5 hPa | 0 mm | - | - | - |
* Rain latest hour (hover to see other rain measurements)
** Current wind speed in m/s (hover to see current wind gust speed)